Dewpoint
76 75 75 69 57 55 51 53 54 54 54 57 56 56 57 61 57 52 67 70 71 72 73 73 75 75 74 74 73 74 75 75 74 74 74 74 74 74 74 73 73 73 74 74 73 73 72 72 72
76 74 68 64 52 48 50 56 55 56 57 58 60 60 59 59 64 66 67 71 72 73 73 73 75 75 74 74 74 75 74 75 73 74 74 75 74 75 74 75 74 74 74 74 74 73 73 72 72
73 68 58 56 52 49 51 58 57 58 59 57 58 60 60 62 65 66 68 71 73 73 74 73 76 75 75 74 75 75 74 75 73 73 74 74 74 74 74 74 74 74 74 73 74 73 73 72 72
68 66 62 53 51 55 56 56 58 59 61 60 59 59 62 65 64 68 70 72 73 74 73 74 75 75 75 74 75 75 74 74 73 72 73 74 74 74 74 73 73 75 74 74 74 73 73 73 73
65 62 55 52 53 57 59 59 59 58 59 59 59 59 61 66 68 69 71 72 73 73 73 73 75 75 75 74 75 74 75 74 75 75 73 73 73 74 74 74 74 73 73 73 73 73 73 73 73
60 61 52 50 52 56 58 59 60 58 59 59 59 59 59 68 68 70 71 72 73 73 73 73 75 76 75 74 74 75 75 75 75 74 74 74 74 73 73 73 74 74 74 74 73 72 73 73 73
57 55 52 53 54 56 58 60 59 58 58 58 60 57 61 66 68 70 71 72 72 73 73 73 72 74 76 74 74 75 75 75 74 74 74 74 73 73 73 73 73 72 73 73 73 73 73 73 73
59 52 50 54 55 55 56 58 60 59 59 60 59 57 59 64 66 69 71 71 72 73 73 73 72 73 74 73 76 75 75 75 75 75 74 74 73 73 73 74 73 73 73 72 72 73 74 73 73
56 52 50 53 54 54 57 58 59 60 59 59 61 59 61 64 68 69 70 70 71 72 72 73 73 73 73 73 73 75 75 75 74 73 72 73 73 74 73 72 73 73 73 73 73 73 73 73 74
55 52 51 54 54 55 57 58 58 59 58 58 59 61 62 66 67 67 67 67 69 70 72 73 73 73 73 74 74 74 73 73 72 72 72 73 71 70 71 72 70 70 72 73 73 73 74 74 74
55 51 53 54 55 56 57 58 59 58 57 58 58 60 64 66 66 65 66 66 68 70 72 73 73 73 73 73 73 72 72 72 71 71 72 71 67 66 68 68 67 69 70 72 71 73 73 73 73
51 55 52 56 56 54 56 58 59 57 58 59 59 61 64 65 65 65 66 67 68 70 71 72 73 72 72 72 73 72 71 71 71 71 71 67 64 64 68 68 67 68 70 69 71 71 71 72 72
53 53 55 55 55 54 55 57 57 58 60 60 59 62 64 64 65 65 66 68 68 69 70 72 72 72 72 72 72 72 72 72 71 71 71 68 64 65 67 67 67 68 69 69 69 69 69 70 70
53 54 54 57 54 54 54 57 57 59 60 61 60 62 63 63 64 64 66 67 67 68 69 70 71 72 72 72 72 72 71 72 71 71 71 69 67 66 66 66 67 68 69 69 69 70 69 70 71
54 50 53 55 55 53 52 53 56 59 59 61 61 61 62 63 64 64 65 66 67 68 68 69 70 71 71 71 71 71 71 71 71 71 71 71 69 68 67 66 66 67 68 69 69 69 71 70 70
51 48 44 51 54 52 52 48 58 59 57 57 59 61 61 62 63 63 64 65 66 67 67 68 69 69 69 70 70 71 71 71 71 71 71 71 70 69 68 66 66 68 68 68 69 70 69 69 70
46 42 46 49 54 52 50 50 55 57 55 56 58 58 58 59 60 61 62 63 64 65 66 66 68 68 68 69 70 71 71 71 71 72 71 71 70 69 69 69 69 69 68 69 69 69 69 69 69
39 44 44 45 49 50 48 49 54 56 56 55 55 55 56 56 57 57 58 61 62 64 64 65 66 67 68 68 70 71 71 71 71 71 71 70 70 70 70 69 69 69 69 69 70 70 70 70 69
41 43 43 47 51 50 50 50 54 55 55 55 55 54 54 54 55 56 56 58 59 61 62 62 64 66 67 68 69 69 69 70 70 70 71 71 70 70 70 70 70 70 69 69 70 70 69 69 70
44 43 44 48 51 49 51 49 52 54 54 55 55 55 54 54 55 56 57 56 56 58 60 62 64 66 67 68 68 69 70 70 71 71 71 71 70 70 70 70 70 70 70 69 69 70 69 68 70
44 40 43 43 50 52 51 48 51 54 55 55 56 55 55 55 54 55 57 57 56 57 59 61 64 66 67 68 69 70 70 71 70 70 70 71 71 71 71 71 71 71 71 70 70 69 68 68 69
41 43 45 48 43 39 49 40 44 49 52 53 54 56 55 56 56 57 56 57 57 57 59 63 65 67 67 68 69 69 68 68 69 70 70 71 71 71 72 72 71 71 70 70 69 70 69 68 67
38 44 45 46 44 45 46 41 41 49 47 51 50 53 57 58 57 57 56 57 59 60 60 63 66 67 68 69 69 69 68 69 69 70 69 70 71 71 72 72 72 71 71 70 70 70 69 69 68
42 39 39 42 39 36 39 42 40 41 45 48 49 51 54 58 58 58 59 61 61 63 63 65 66 67 68 69 70 69 66 65 65 66 68 69 70 71 71 71 71 71 71 71 71 71 70 69 69
39 36 34 33 35 35 42 44 42 45 48 48 48 52 55 57 60 60 61 61 61 63 64 65 66 68 69 69 70 68 66 65 65 65 67 68 69 71 70 71 72 72 72 71 71 71 71 69 69
37 35 32 29 31 34 41 37 37 45 52 53 54 55 59 59 61 60 62 63 63 64 64 64 66 68 70 70 68 68 68 66 65 65 66 67 69 70 71 72 71 72 72 72 72 71 70 70 69
35 34 35 36 37 33 35 38 42 47 50 49 52 56 58 60 62 61 62 64 64 64 69 68 68 70 72 71 70 69 70 68 65 66 68 70 70 70 70 70 71 71 71 71 70 70 67 67 68
32 36 33 34 32 30 33 37 39 43 47 50 54 55 58 61 59 58 60 60 62 66 72 72 71 71 71 70 70 70 68 66 66 67 70 69 68 69 70 70 70 70 70 69 69 68 67 66 67
37 37 37 35 34 31 30 32 41 43 48 49 53 57 57 59 61 60 58 66 71 71 71 70 70 69 68 68 69 69 69 70 70 70 69 69 69 68 68 68 67 67 67 68 67 66 65 67 66
34 35 35 32 32 33 32 31 38 46 48 49 51 56 57 60 61 60 61 69 69 69 69 68 68 68 67 66 66 66 66 66 67 67 67 68 68 68 67 67 67 67 67 66 66 66 68 67 66
Lifted_Index
-4 -4 -4 -3 -2 -2 -2 -2 -2 -2 -1 -2 -2 -2 -3 -3 -3 -2 -3 -3 -4 -4 -4 -5 -5 -5 -5 -4 -4 -5 -5 -5 -5 -5 -5 -5 -5 -5 -5 -5 -5 -5 -5 -6 -5 -5 -5 -5 -5
-4 -4 -3 -2 -2 -2 -2 -3 -2 -2 -2 -2 -2 -3 -3 -3 -3 -3 -3 -4 -5 -5 -5 -5 -5 -5 -5 -4 -5 -5 -5 -5 -4 -4 -5 -5 -5 -5 -5 -5 -5 -6 -6 -6 -6 -5 -5 -5 -5
-4 -3 -2 -1 -1 -2 -2 -3 -3 -3 -2 -2 -2 -3 -2 -2 -3 -3 -3 -4 -5 -5 -5 -5 -5 -5 -5 -5 -5 -5 -5 -5 -4 -4 -4 -5 -5 -5 -5 -5 -5 -6 -6 -6 -6 -5 -5 -5 -5
-3 -2 -2 -1 -1 -2 -3 -3 -3 -3 -3 -2 -2 -2 -2 -2 -2 -3 -4 -5 -5 -6 -5 -5 -5 -5 -5 -5 -5 -5 -5 -5 -4 -4 -4 -4 -5 -5 -5 -5 -5 -5 -5 -6 -6 -5 -5 -5 -5
-3 -2 -1 -1 -1 -2 -3 -3 -3 -3 -3 -2 -2 -2 -2 -2 -3 -3 -4 -5 -5 -6 -5 -5 -6 -6 -6 -5 -5 -6 -6 -5 -5 -5 -4 -4 -5 -5 -5 -5 -5 -5 -5 -5 -5 -5 -5 -6 -6
-2 -2 -1 -0 -1 -2 -2 -3 -3 -3 -2 -2 -2 -2 -2 -3 -3 -4 -4 -5 -5 -5 -5 -5 -6 -6 -6 -5 -5 -6 -6 -6 -6 -5 -5 -5 -5 -4 -4 -5 -5 -5 -5 -5 -5 -5 -5 -6 -6
-2 -1 -0 -0 -1 -2 -2 -3 -3 -3 -2 -2 -2 -2 -2 -2 -3 -4 -4 -4 -5 -6 -6 -6 -6 -6 -6 -6 -6 -6 -6 -6 -6 -5 -5 -5 -5 -4 -4 -5 -5 -4 -4 -5 -5 -5 -5 -5 -6
-1 -1 -0 -1 -1 -2 -2 -2 -2 -2 -2 -2 -2 -2 -2 -2 -3 -3 -4 -4 -5 -5 -6 -6 -6 -6 -6 -6 -6 -6 -6 -6 -6 -5 -5 -5 -4 -4 -4 -4 -4 -4 -4 -4 -4 -4 -5 -5 -5
-1 -1 -1 -1 -1 -2 -2 -2 -2 -2 -2 -3 -2 -2 -1 -1 -2 -3 -3 -4 -4 -5 -5 -6 -6 -6 -6 -6 -6 -6 -6 -6 -5 -5 -4 -4 -5 -4 -4 -4 -4 -4 -4 -4 -4 -4 -4 -5 -5
-1 -1 -1 -1 -2 -2 -2 -2 -2 -2 -2 -2 -2 -1 -1 -1 -2 -2 -2 -3 -4 -4 -5 -5 -5 -6 -6 -5 -6 -6 -5 -5 -4 -4 -4 -4 -4 -3 -2 -2 -2 -2 -3 -3 -3 -4 -4 -4 -4
-1 -1 -1 -2 -2 -2 -2 -2 -2 -2 -2 -2 -2 -1 -1 -1 -1 -1 -2 -2 -3 -4 -4 -5 -5 -5 -5 -5 -5 -5 -5 -4 -4 -3 -3 -3 -2 -1 -0 0 -0 -1 -1 -2 -2 -3 -3 -3 -3
-1 -0 -1 -1 -2 -2 -2 -2 -1 -1 -2 -2 -2 -1 -1 -1 -1 -1 -2 -2 -3 -3 -4 -4 -5 -5 -5 -5 -5 -4 -4 -4 -3 -3 -3 -2 -1 1 1 1 1 1 1 -0 -1 -2 -2 -2 -2
-0 -0 -1 -1 -1 -2 -2 -2 -1 -1 -1 -1 -1 -1 -1 -1 -2 -2 -2 -3 -3 -3 -4 -4 -4 -4 -5 -5 -4 -4 -4 -3 -3 -3 -2 -2 -0 1 1 2 2 2 1 0 -0 -1 -1 -1 -1
-0 -0 -0 -0 -1 -2 -2 -2 -1 -1 -1 -1 -1 -1 -1 -1 -1 -2 -2 -3 -3 -3 -3 -3 -4 -4 -4 -4 -4 -4 -3 -3 -3 -3 -3 -2 -1 -0 1 1 1 1 1 0 0 -0 -0 -1 -1
-0 -0 -0 -0 -0 -1 -2 -2 -2 -1 -1 -1 -1 -1 -1 -1 -1 -2 -2 -2 -2 -2 -2 -3 -3 -3 -3 -4 -3 -3 -3 -3 -3 -3 -3 -2 -2 -1 -0 -0 -0 0 0 0 0 0 -0 -0 -1
0 0 0 0 0 -1 -1 -2 -2 -2 -1 -1 -1 -1 -1 -1 -1 -1 -1 -1 -1 -2 -2 -2 -2 -2 -3 -3 -3 -3 -3 -3 -3 -3 -3 -3 -3 -2 -1 -1 -1 -1 -0 -0 -0 0 0 -0 -1
1 1 0 0 0 -0 -1 -2 -3 -3 -2 -1 -1 -1 -1 -1 -1 -1 -2 -1 -1 -1 -2 -2 -2 -2 -2 -2 -3 -3 -3 -3 -3 -3 -3 -3 -3 -2 -1 -1 -1 -1 -1 -1 -1 -0 -0 -1 -1
1 1 0 0 0 -0 -1 -2 -3 -3 -2 -2 -1 -1 -1 -1 -1 -1 -1 -1 -1 -1 -2 -2 -2 -2 -2 -2 -3 -3 -3 -3 -3 -3 -3 -3 -3 -2 -2 -1 -1 -2 -2 -2 -1 -1 -1 -1 -1
1 1 0 -0 -0 -1 -1 -1 -2 -3 -3 -2 -2 -1 -1 -1 -1 -1 -1 -1 -1 -1 -1 -2 -2 -2 -2 -2 -2 -3 -3 -3 -3 -3 -3 -3 -3 -2 -2 -2 -2 -2 -2 -2 -2 -2 -1 -1 -1
0 0 -0 -1 -1 -1 -1 -1 -1 -2 -2 -2 -2 -1 -1 -1 -1 -1 -1 -1 -0 -1 -1 -1 -2 -2 -2 -2 -2 -3 -3 -3 -3 -3 -3 -3 -3 -3 -3 -3 -3 -3 -3 -3 -2 -2 -2 -1 -1
0 0 -0 -1 -1 -1 -1 -1 -1 -1 -1 -1 -1 -1 -1 -1 -1 -1 -1 -1 -1 -1 -1 -1 -1 -1 -1 -1 -2 -2 -3 -3 -3 -3 -3 -3 -3 -3 -4 -4 -4 -4 -3 -3 -2 -2 -2 -1 -1
0 0 -0 -0 -0 -0 -0 -0 0 0 -0 -0 -0 -1 -1 -1 -1 -1 -1 -1 -1 -1 -1 -1 -1 -1 -1 -2 -2 -2 -3 -3 -3 -3 -3 -3 -3 -4 -4 -4 -4 -4 -3 -3 -3 -2 -2 -2 -1
-0 0 0 0 0 0 0 0 1 1 1 1 1 0 -1 -1 -2 -2 -2 -2 -2 -2 -2 -2 -2 -2 -2 -2 -2 -3 -2 -2 -2 -3 -3 -3 -4 -4 -4 -4 -4 -4 -4 -3 -3 -3 -2 -2 -2
-0 0 0 1 0 0 1 1 1 1 1 1 1 1 0 -1 -2 -2 -2 -2 -3 -3 -3 -2 -2 -2 -2 -2 -2 -2 -2 -1 -1 -2 -2 -3 -3 -4 -4 -4 -4 -4 -4 -3 -3 -2 -2 -2 -2
0 0 0 0 0 1 1 1 1 1 1 1 1 1 0 -1 -2 -2 -2 -3 -3 -3 -3 -3 -3 -3 -3 -3 -2 -2 -1 0 0 -1 -1 -2 -2 -3 -3 -4 -4 -4 -4 -3 -2 -2 -2 -2 -1
0 0 -0 -0 0 0 1 1 1 1 1 1 1 0 -0 -1 -2 -2 -2 -2 -3 -3 -4 -4 -4 -4 -4 -3 -2 -2 -2 -1 -0 0 -0 -1 -1 -2 -3 -3 -3 -3 -3 -3 -2 -2 -1 -1 -1
1 0 -0 -0 -0 -0 0 1 1 0 1 1 0 -0 -0 -1 -2 -2 -2 -2 -2 -3 -5 -5 -5 -5 -5 -4 -4 -3 -3 -2 -1 -1 -0 -1 -1 -2 -3 -3 -3 -3 -3 -2 -2 -2 -1 -1 -0
1 1 0 -0 -0 -1 -0 0 0 0 1 0 -0 -0 -0 -1 -1 -1 -2 -2 -3 -4 -5 -6 -6 -6 -5 -5 -4 -4 -3 -3 -2 -2 -2 -2 -2 -2 -2 -2 -2 -2 -2 -2 -1 -1 -0 -0 0
1 1 0 -0 -0 -1 -0 -0 0 0 1 0 -0 -0 0 -0 -1 -1 -2 -2 -3 -5 -6 -6 -6 -5 -4 -4 -3 -3 -2 -2 -2 -2 -2 -2 -1 -1 -1 -1 -1 -1 -1 -1 -1 -0 0 1 1
0 0 0 -0 -0 -0 -0 -0 0 0 1 0 0 -0 0 -0 -0 -1 -2 -3 -4 -5 -6 -6 -5 -4 -4 -3 -2 -1 -1 -1 -1 -1 -1 -1 -1 -0 -0 -0 -0 -0 -0 -0 0 0 0 1 1